SL-8 R/B

基本信息
目录编号:
33066
目录名称:
SL-8 R/B
国际标识:
2008-031G
轨道中心:
EARTH
物体状态:
在轨
发射日期:
2008-06-19 UTC
国别:
俄罗斯(独联体) (CIS)
轨道信息
数据来源: 国际轨道数据
星历时间: 2026-07-13T10:17:09+0800
半长轴: 7028.838km
偏心率: 0.000667
轨道倾角: 48.442°
近地点辐角: 102.050°
升交点赤经: 70.654°
平近点角: 258.115°
近地点: 646.012km
远地点: 655.39km
周期: 97.743分钟
每日圈数: 14.732537
详细信息
发射场:
KYMTR
轨道高度:
LEO
数据来源:
AOE Integration Group
参考系:
TEME
时间系统:
UTC
历元类型:
SGP4
2D轨道图
3D轨道图
轨道高度分析图
轨道倾角分析图
轨道综合分析图
查看轨道综合分析图